Regional Weather Roundup
Issued by NWS

Home | Current Version | Previous Version | Text Only | Print | Product List | Glossary Off
Versions: 1 2 3 4 5 6 7 8 9 10 11 12 13 14 15 16 17 18 19 20 21 22 23 24 25 26 27 28 29 30 31 32 33 34 35 36 37 38 39 40 41 42 43 44 45 46 47 48 49 50

000
ASUS43 KMKX 161121
RWRWI

WISCONSIN REGIONAL WEATHER ROUNDUP
NATIONAL WEATHER SERVICE MILWAUKEE/SULLIVAN WI
600 AM CDT TUE SEP 16 2014

NOTE: "FAIR" INDICATES FEW OR NO CLOUDS BELOW 12,000 FEET WITH NO
SIGNIFICANT WEATHER AND/OR OBSTRUCTIONS TO VISIBILITY.

WIZ001-002-006>008-014>016-023>028-161200-
NORTHWEST WISCONSIN

CITY           SKY/WX    TMP DP  RH WIND       PRES   REMARKS
SUPERIOR ARPT  CLEAR     38  36  92 SW8       30.11F WCI  32
ASHLAND        PTCLDY    44  37  76 SW10      30.12F
HAYWARD        PTCLDY    33  31  92 CALM      30.16S
SIREN          CLEAR     43  38  84 SW5       30.16S
RICE LAKE      CLEAR     36  35  96 CALM      30.19F
LADYSMITH      CLEAR     35  34  96 CALM      30.19F
EAU CLAIRE     CLEAR     39  37  92 SW5       30.19F
MENOMONIE      SUNNY     38  37  97 CALM      30.20S
NEW RICHMOND   CLEAR     40  39  98 S5        30.19S
OSCEOLA        CLEAR     37  37 100 CALM      30.21S
$$

WIZ003>005-009-010-017-018-161200-
NORTH CENTRAL WISCONSIN

CITY           SKY/WX    TMP DP  RH WIND       PRES   REMARKS
WOODRUFF       CLEAR     37  34  90 CALM      30.14F
RHINELANDER    CLEAR     32  30  92 W3        30.16S
EAGLE RIVER    CLEAR     31  31 100 CALM      30.14S
LAND O LAKES   CLEAR     29  29  99 CALM      30.14S
PHILLIPS       CLEAR     33  33  99 CALM      30.15F
TOMAHAWK       CLEAR     31  30  97 CALM      30.17S
MEDFORD        CLEAR     37  35  95 CALM      30.18S
MERRILL        PTCLDY    32  31  98 CALM      30.18S
$$

WIZ029-030-035-036-043>047-161200-
CENTRAL WISCONSIN

CITY           SKY/WX    TMP DP  RH WIND       PRES   REMARKS
WAUSAU         CLEAR     37  35  92 N3        30.17S
MOSINEE        CLEAR     37  37 100 W6        30.19S WCI  33
MARSHFIELD     CLEAR     39  37  92 W5        30.19S
STEVENS POINT  CLEAR     32  31  97 CALM      30.19F
WAUPACA        CLEAR     40  38  95 CALM      30.19F
WAUTOMA        CLEAR     35  34  96 CALM      30.21S
WISC RAPIDS    CLEAR     38  36  92 CALM      30.21S
CAMP DOUGLAS   CLEAR     32  32 100 CALM      30.21R FOG
$$

WIZ011>013-019>022-031-037>040-048>050-161200-
NORTHEAST WISCONSIN

CITY           SKY/WX    TMP DP  RH WIND       PRES   REMARKS
ANTIGO         CLEAR     33  33  99 CALM      30.17S
STURGEON BAY   CLEAR     45  39  81 SW6       30.16S
GREEN BAY      CLEAR     39  38  96 W5        30.18S
MANITOWOC      CLEAR     42  41  96 W5        30.19R
APPLETON       NOT AVBL
CLINTONVILLE   CLEAR     37  36  93 CALM      30.18S
OSHKOSH        CLEAR     42  39  89 W7        30.19S
$$

WIZ032>034-041-042-053>061-161200-
SOUTHWEST WISCONSIN

CITY           SKY/WX    TMP DP  RH WIND       PRES   REMARKS
LA CROSSE      CLOUDY    44  43  96 S5        30.22S FOG
SPARTA         FOG       33  33 100 CALM      30.23S VSB 1/2
VIROQUA          N/A     38  38 100 CALM      30.21S
BOSCOBEL       FOG       43  42  97 S3        30.23S VSB 1/4
PRAIRIE DU CHI DRZL/FOG  43  42  96 CALM      30.23F VSB 1/4
PLATTEVILLE      N/A     37  36  93 CALM      30.23S VSB 1/4
$$

WIZ056-057-062-063-064-067-068-161200-
SOUTH CENTRAL WISCONSIN

CITY           SKY/WX    TMP DP  RH WIND       PRES   REMARKS
BARABOO/DELLS  CLEAR     37  36  96 CALM      30.21S FOG
LONE ROCK      FOG       42  38  85 CALM      30.23R VSB 1/2
WATERTOWN      CLEAR     36  36  99 CALM      30.20R
MADISON        CLEAR     38  37  97 CALM      30.22S
MIDDLETON        N/A     38  38 100 CALM      30.22R VSB 1/2
MONROE         CLEAR     45  41  87 NW6       30.21S
JANESVILLE     CLEAR     41  39  93 CALM      30.20S FOG
$$

WIZ051-052-058>065-066-070>072-161200-
SOUTHEAST WISCONSIN

CITY           SKY/WX    TMP DP  RH WIND       PRES   REMARKS
MILWAUKEE      CLEAR     45  41  86 NW6       30.19S
WAUKESHA       CLEAR     41  39  93 CALM      30.20S
MILWAUKEE/TIMM CLEAR     41  39  93 CALM      30.21R
RACINE         CLEAR     44  41  89 NW7       30.21R
BURLINGTON     CLEAR     36  36  99 CALM      30.20R
KENOSHA        CLEAR     42  41  96 NW5       30.20R
FOND DU LAC    CLEAR     37  36  96 CALM      30.20S
SHEBOYGAN      CLEAR     39  37  92 NW3       30.19R
WEST BEND      CLEAR     41  37  87 W3        30.19S
JUNEAU         FOG       37  37  99 CALM      30.21S VSB 1/4
$$

LSZ147-162-161200-
LAKE SUPERIOR

STATION/POSITION TIME  TEMP    WIND        PRES    WAVE
                       AIR SEA DIR/SP/G            HT/PER
                 (UTC) (F)     (DEG/KT/KT) (MB)    (FT/S)
W MID LAKE BUOY  1050   51 47  230/ 16/ 19 1017.4F   3/ 4
DEVILS ISLAND    1100   51     240/ 23/ 26 1018.3F
PORT WING        1040   47     190/  7/  9 1019.6S
SAXON HARBOR     1040   48     200/  9/ 13 1019.6F
$$

LMZ867-665-643>646-161200-
LAKE MICHIGAN

STATION/POSITION TIME  TEMP    WIND        PRES    WAVE
                       AIR SEA DIR/SP/G            HT/PER
                 (UTC) (F)     (DEG/KT/KT) (MB)    (FT/S)
N MID LAKE BUOY  1050   54 59  270/ 12/ 14 1020.5R   1/ 3
NORTHPORT PIER   1000   47     260/  3/  5 1020.7R
KEWAUNEE LAKESHO 1100   42     300/  5/  6 1020.6R
SHEBOYGAN LAKESH 1100   46 48  290/ 10/ 11 1022.5S
PORT WASHINGTON  1000   47     300/  7/ 10 1022.7R
ATWATER BUOY     1100   51     310/  8/ 12 1023.2R
MILWAUKEE LAKESH 1100   47     300/  7/  8   N/A
S MID LAKE BUOY  1050   58 64  340/ 10/ 12 1021.7R
KENOSHA   LAKESH 1100   47     300/  7/  9 1022.4R
$$

TC  - TEMPERATURE IN CELSIUS
VSB - VISIBILITY IN STATUTE MILES
WCI - WIND CHILL INDEX
HX  - HEAT INDEX




USA.gov is the U.S. government's official web portal to all federal, state and local government web resources and services.